Вернуться в каталог

FENGYUN 1C DEB *

АктивенSSO
NORAD 47006·DEBRIS·🇨🇳 China

Запущен May 10, 1999 с Taiyuan Satellite Launch Center

Loading…

Ближайшие Пролёты (ближайшие 24 часа)

TLE

УстаревшееSource: Space-Track

Эпоха: Aug 31, 2026, 23:10 UTC

1 47006U 99025FAG 26243.96559144  .00000667  00000-0  48229-3 0  9999
2 47006  99.1689 307.4153 0083995  78.2728 282.7845 13.98490353864326

Отслеживайте FENGYUN 1C DEB * в реальном времени с AllMySat

Download on the App Store